Weather home | Your neighborhood | Marine | Radar | Hurricane | Almanac

Daily weather history


Statistical History for Thursday, February 28, 2013

Tampa Knight Airport, FL


  Actual Average (KTPA) Record (KTPA)
Temperature
Mean Temperature -  
Max Temperature 73 °F 86 °F (1997)
Min Temperature 55 °F 30 °F (1935)
Degree Days
Heating Degree Days    
Growing Degree Days 11 (Base - )  
Moisture
Dew Point   
Average Humidity    
Maximum Humidity    
Minimum Humidity    
Precipitation
Precipitation - - ()
Wind
Wind Speed   
Max Wind Speed   
Max Gust Speed   
Visibility   
Events   
Averages and records for this station are not official NWS values.
Key: T is trace of precipitation, MM is missing value
Source: NWS Daily Summary
Seasonal Weather Averages
Time(EST)TemperatureDew PointHumidity Sea Level Pressure Visibility Wind DirectionWind SpeedGust SpeedPrecipitationEventsConditions
12:15 AM 59.0 °F 50.0 °F 72% 30.00 in 10.0 miles Calm Calm - N/A   Clear
1:15 AM 55.4 °F 50.0 °F 82% 29.99 in 10.0 miles Calm Calm - N/A   Clear
1:35 AM 57.2 °F 50.0 °F 77% 29.98 in 10.0 miles Calm Calm - N/A   Clear
1:55 AM 55.4 °F 50.0 °F 82% 29.98 in 10.0 miles Calm Calm - N/A   Clear
2:15 AM 57.2 °F 50.0 °F 77% 29.98 in 10.0 miles Calm Calm - N/A   Clear
2:35 AM 55.4 °F 50.0 °F 82% 29.98 in 10.0 miles Calm Calm - N/A   Clear
2:55 AM 55.4 °F 50.0 °F 82% 29.97 in 10.0 miles Calm Calm - N/A   Clear
3:15 AM 55.4 °F 50.0 °F 82% 29.96 in 10.0 miles Calm Calm - N/A   Clear
3:35 AM 53.6 °F 50.0 °F 88% 29.97 in 10.0 miles Calm Calm - N/A   Clear
3:55 AM 53.6 °F 50.0 °F 88% 29.97 in 10.0 miles Calm Calm - N/A   Clear
4:15 AM 53.6 °F 51.8 °F 94% 29.96 in 10.0 miles Calm Calm - N/A   Clear
4:35 AM 53.6 °F 50.0 °F 88% 29.97 in 10.0 miles Calm Calm - N/A   Clear
4:55 AM 55.4 °F 51.8 °F 88% 29.97 in 10.0 miles Calm Calm - N/A   Clear
5:15 AM 57.2 °F 51.8 °F 82% 29.98 in 10.0 miles Calm Calm - N/A   Clear
5:35 AM 57.2 °F 50.0 °F 77% 29.97 in 10.0 miles North 3.5 mph - N/A   Clear
5:55 AM 57.2 °F 50.0 °F 77% 29.98 in 10.0 miles Calm Calm - N/A   Clear
6:15 AM 57.2 °F 50.0 °F 77% 29.98 in 10.0 miles Calm Calm - N/A   Scattered Clouds
6:55 AM 55.4 °F 51.8 °F 88% 29.99 in 10.0 miles Calm Calm - N/A   Scattered Clouds
7:15 AM 55.4 °F 51.8 °F 88% 29.99 in 10.0 miles Calm Calm - N/A   Scattered Clouds
7:35 AM 55.4 °F 51.8 °F 88% 30.00 in 10.0 miles Calm Calm - N/A   Clear
7:55 AM 59.0 °F 51.8 °F 77% 30.01 in 10.0 miles Calm Calm - N/A   Clear
8:15 AM 60.8 °F 51.8 °F 72% 30.01 in 10.0 miles Calm Calm - N/A   Clear
8:35 AM 62.6 °F 51.8 °F 68% 30.02 in 10.0 miles North 3.5 mph - N/A   Clear
8:55 AM 62.6 °F 51.8 °F 68% 30.03 in 10.0 miles NNW 3.5 mph - N/A   Clear
9:15 AM 64.4 °F 51.8 °F 64% 30.02 in 10.0 miles WNW 3.5 mph - N/A   Clear
9:35 AM 64.4 °F 51.8 °F 64% 30.02 in 10.0 miles NW 4.6 mph - N/A   Clear
9:55 AM 66.2 °F 50.0 °F 56% 30.02 in 10.0 miles NW 6.9 mph - N/A   Clear
10:15 AM 68.0 °F 50.0 °F 52% 30.03 in 10.0 miles West 5.8 mph - N/A   Scattered Clouds
10:35 AM 68.0 °F 50.0 °F 52% 30.01 in 10.0 miles North - - N/A   Scattered Clouds
10:55 AM 68.0 °F 50.0 °F 52% 30.01 in 10.0 miles West 8.1 mph - N/A   Clear
11:15 AM 69.8 °F 48.2 °F 46% 30.01 in 10.0 miles West 10.4 mph - N/A   Scattered Clouds
11:35 AM 69.8 °F 48.2 °F 46% 30.01 in 10.0 miles WNW 6.9 mph - N/A   Scattered Clouds
11:55 AM 69.8 °F 48.2 °F 46% 30.01 in 10.0 miles WNW 8.1 mph - N/A   Clear
12:15 PM 69.8 °F 50.0 °F 49% 30.00 in 10.0 miles West 9.2 mph - N/A   Clear
12:35 PM 69.8 °F 50.0 °F 49% 30.00 in 10.0 miles WNW 10.4 mph - N/A   Clear
12:55 PM 69.8 °F 50.0 °F 49% 29.99 in 10.0 miles WNW 8.1 mph - N/A   Scattered Clouds
1:15 PM 69.8 °F 50.0 °F 49% 29.98 in 10.0 miles West 6.9 mph - N/A   Clear
1:35 PM 69.8 °F 50.0 °F 49% 29.97 in 10.0 miles WNW 8.1 mph - N/A   Clear
1:55 PM 69.8 °F 50.0 °F 49% 29.96 in 10.0 miles WNW 6.9 mph 17.3 mph N/A   Clear
2:15 PM 69.8 °F 50.0 °F 49% 29.96 in 10.0 miles WNW 12.7 mph 18.4 mph N/A   Clear
2:35 PM 69.8 °F 50.0 °F 49% 29.96 in 10.0 miles West 10.4 mph - N/A   Clear
2:55 PM 69.8 °F 50.0 °F 49% 29.95 in 10.0 miles West 8.1 mph - N/A   Clear
3:15 PM 69.8 °F 48.2 °F 46% 29.95 in 10.0 miles WNW 6.9 mph - N/A   Clear
3:35 PM 69.8 °F 46.4 °F 43% 29.95 in 10.0 miles West 11.5 mph 16.1 mph N/A   Clear
3:55 PM 69.8 °F 46.4 °F 43% 29.94 in 10.0 miles WNW 11.5 mph - N/A   Clear
4:15 PM 69.8 °F 46.4 °F 43% 29.94 in 10.0 miles WNW 11.5 mph 19.6 mph N/A   Clear
4:35 PM 69.8 °F 48.2 °F 46% 29.94 in 10.0 miles NW 6.9 mph - N/A   Clear
4:55 PM 68.0 °F 48.2 °F 49% 29.94 in 10.0 miles North - - N/A   Clear
5:15 PM 68.0 °F 46.4 °F 46% 29.94 in 10.0 miles WNW 9.2 mph 16.1 mph N/A   Clear
5:35 PM 68.0 °F 46.4 °F 46% 29.95 in 10.0 miles WNW 5.8 mph - N/A   Clear
5:55 PM 66.2 °F 48.2 °F 52% 29.95 in 10.0 miles WNW 10.4 mph 17.3 mph N/A   Clear
6:15 PM 64.4 °F 50.0 °F 59% 29.96 in 10.0 miles NW 6.9 mph - N/A   Clear
6:35 PM 64.4 °F 50.0 °F 59% 29.96 in 10.0 miles WNW 5.8 mph - N/A   Clear
6:55 PM 64.4 °F 50.0 °F 59% 29.96 in 10.0 miles NW 6.9 mph - N/A   Clear
7:15 PM 62.6 °F 51.8 °F 68% 29.97 in 10.0 miles NW 6.9 mph - N/A   Scattered Clouds
7:35 PM 62.6 °F 50.0 °F 63% 29.98 in 10.0 miles NW 9.2 mph - N/A   Clear
8:15 PM 60.8 °F 50.0 °F 68% 29.98 in 10.0 miles NW 6.9 mph - N/A   Clear
8:35 PM 60.8 °F 48.2 °F 63% 29.98 in 10.0 miles NNW 6.9 mph - N/A   Clear
8:55 PM 60.8 °F 46.4 °F 59% 29.98 in 10.0 miles NW 3.5 mph - N/A   Clear
9:15 PM 59.0 °F 46.4 °F 63% 29.98 in 10.0 miles NW 3.5 mph - N/A   Clear
9:35 PM 59.0 °F 46.4 °F 63% 29.98 in 10.0 miles Calm Calm - N/A   Clear
9:55 PM 59.0 °F 46.4 °F 63% 29.99 in 10.0 miles NW 3.5 mph - N/A   Clear
10:15 PM 59.0 °F 46.4 °F 63% 29.99 in 10.0 miles WNW 5.8 mph - N/A   Clear
10:35 PM 59.0 °F 46.4 °F 63% 29.99 in 10.0 miles WNW 6.9 mph - N/A   Clear
10:55 PM 59.0 °F 46.4 °F 63% 29.99 in 10.0 miles NW 5.8 mph - N/A   Clear
11:15 PM 59.0 °F 44.6 °F 59% 29.99 in 10.0 miles NNW 4.6 mph - N/A   Clear
11:35 PM 59.0 °F 44.6 °F 59% 29.98 in 10.0 miles NNW 4.6 mph - N/A   Clear
ADVERTISEMENT
Enter city or zip code to search weather conditions:


  • 490 First Avenue South
  • St. Petersburg, FL 33701
  • 727-893-8111